Wind_Speed
17 19 20 19 19 20 20 19 19 18 17 15 14 13 12 11 11 11 11 12 13 15 16 17 18 19 19 19 20 20 21 23 24 26 27 28 29 30 31 32 33 34
16 17 17 17 16 16 17 18 17 15 14 14 14 13 12 12 11 12 13 14 14 16 17 17 18 18 18 19 20 21 22 24 25 27 28 29 30 31 32 33 34 35
14 14 13 13 13 14 15 15 14 14 14 14 13 12 12 12 12 13 13 14 15 16 16 17 17 17 18 19 20 22 23 25 26 27 29 30 31 32 33 34 35 36
13 12 12 12 12 13 14 15 15 14 14 13 12 12 12 12 12 13 14 15 15 16 16 16 16 17 18 19 21 22 24 25 27 28 30 31 32 33 34 35 36 37
16 15 14 14 14 14 14 15 15 15 14 13 12 12 12 12 13 14 15 15 15 15 15 16 16 17 19 20 22 24 25 27 29 30 31 32 33 34 35 36 37 37
17 17 16 15 14 14 15 15 16 15 14 14 13 13 13 13 14 15 15 15 15 15 15 16 17 18 19 21 23 25 27 29 31 32 33 33 34 35 36 36 37 36
16 17 16 15 15 16 16 17 17 16 15 14 13 13 14 14 15 15 15 15 15 16 16 17 17 19 21 23 25 27 29 30 32 33 34 34 35 35 36 36 36 35
16 16 17 17 17 17 17 18 17 16 15 14 14 15 15 16 16 16 16 16 17 17 17 18 19 20 23 25 27 28 30 32 33 34 34 34 35 36 36 36 35 34
16 17 17 18 18 18 18 18 17 16 16 15 15 16 17 17 17 17 17 18 18 18 18 19 20 22 24 26 28 30 32 33 33 34 34 35 35 36 36 35 35 34
16 17 18 19 19 20 20 19 18 17 17 17 17 18 18 19 18 18 18 19 19 19 20 21 22 24 26 28 29 31 32 33 34 34 34 35 36 36 36 35 34 34
16 18 19 20 21 21 21 20 19 19 18 18 19 19 19 19 19 19 20 20 21 21 22 22 24 25 27 28 30 32 33 34 34 35 35 36 36 36 36 35 34 34
16 18 19 20 22 22 22 21 20 20 20 20 20 20 21 21 21 21 22 22 22 23 23 24 25 27 28 30 32 33 34 34 35 35 36 36 36 36 35 34 33 33
16 17 19 20 22 22 22 22 21 21 21 22 22 21 22 23 23 23 23 24 24 24 25 26 27 28 29 31 33 34 34 35 35 35 36 36 36 36 34 33 33 33
17 18 19 20 22 22 23 23 22 22 23 23 23 23 23 24 25 25 25 25 25 26 26 27 28 29 30 32 34 34 34 35 35 36 36 36 36 34 33 32 32 33
16 18 19 21 22 23 24 24 24 24 24 25 24 24 25 25 26 26 27 27 27 27 27 28 28 30 31 33 34 35 35 35 35 36 36 36 35 33 32 31 32 34
16 17 19 20 22 23 24 25 25 26 26 26 26 26 26 27 27 28 28 27 27 27 28 28 29 30 32 33 34 35 35 35 35 35 35 35 33 32 31 31 32 34
17 18 19 21 22 23 24 25 26 27 27 28 28 28 29 29 29 29 29 28 27 28 28 28 29 30 32 34 34 34 34 34 34 35 35 34 32 31 31 31 33 34
19 20 21 22 23 24 25 26 26 26 28 29 30 30 32 33 32 31 30 29 28 28 28 28 29 31 33 34 34 33 33 33 34 34 34 33 32 31 31 31 33 34
21 22 23 24 25 26 26 27 27 27 29 29 30 32 35 36 36 35 34 31 28 27 27 27 29 31 32 33 32 32 32 33 34 34 33 32 31 30 30 31 33 34
22 24 25 26 27 28 29 29 29 30 30 31 32 35 37 39 40 39 35 30 26 25 26 27 29 31 31 31 31 31 32 33 34 33 32 31 30 30 30 31 32 34
24 25 26 26 27 29 30 31 32 32 33 34 35 35 38 41 40 34 27 23 22 23 25 26 28 29 30 30 30 31 32 33 33 32 31 30 29 29 29 30 32 34
25 26 26 27 28 29 31 32 33 34 34 35 35 33 34 33 30 25 20 20 22 23 24 26 27 29 29 30 30 31 32 32 31 30 30 29 29 28 29 30 32 34
25 26 27 27 29 30 32 32 32 31 30 30 31 31 28 23 21 21 21 21 21 22 24 26 27 28 29 30 30 31 31 31 30 29 29 29 28 28 28 29 31 34
27 29 29 29 30 31 31 30 28 27 27 27 25 24 22 20 20 21 21 20 21 22 24 26 27 28 28 29 29 30 30 29 29 29 29 28 27 27 28 29 31 33
30 31 31 30 31 31 29 28 27 27 28 27 25 23 22 21 20 19 19 20 21 23 25 26 27 27 28 28 28 29 29 29 29 29 28 27 27 27 28 29 31 33
31 32 32 31 30 29 28 28 28 28 28 27 26 24 21 18 18 19 19 20 22 24 26 26 26 27 28 27 28 28 28 28 28 28 27 27 27 27 28 29 31 32
Wind_Direction
258 255 248 244 237 232 232 225 213 207 209 213 216 220 223 227 232 239 246 253 257 261 266 271 276 281 284 286 288 293 300 305 309 312 312 312 311 310 310 312 314 316
251 243 239 233 226 224 217 206 204 211 217 218 217 218 222 227 234 241 248 254 259 265 270 275 279 282 284 288 295 302 308 311 313 312 312 311 311 311 313 315 317 319
239 223 220 220 213 212 212 216 224 227 223 220 217 219 223 230 239 246 253 260 265 269 273 277 280 284 290 297 304 308 311 311 312 312 313 313 314 315 317 319 321 321
232 215 215 222 222 224 230 234 233 227 223 221 219 223 230 238 246 253 260 264 267 271 274 279 284 291 298 303 306 309 311 313 315 316 316 317 318 320 321 322 322 321
230 230 237 243 241 238 235 231 226 225 225 222 223 230 237 246 254 259 262 264 268 271 276 282 290 297 302 306 309 312 314 316 318 319 320 320 321 322 322 322 321 320
232 239 246 246 240 234 229 226 225 225 225 226 230 237 244 252 258 260 261 264 268 272 278 286 294 300 306 310 313 315 317 319 321 321 322 322 322 322 322 321 320 319
236 240 240 236 230 227 226 226 226 225 226 230 236 242 249 254 256 257 260 264 268 273 281 290 297 304 310 314 316 318 320 322 322 323 323 322 322 322 321 321 320 319
239 237 233 229 226 226 226 226 227 228 231 236 241 247 251 253 255 257 261 265 270 277 285 293 301 307 311 314 316 320 322 322 322 323 323 322 322 322 322 321 320 318
238 235 232 230 229 229 229 230 232 234 238 242 247 251 252 254 256 260 264 269 275 282 289 295 302 307 310 313 317 321 321 321 322 323 323 323 323 323 322 320 319 318
238 237 236 234 233 233 234 237 239 241 243 247 252 254 255 257 260 265 269 274 280 286 291 296 301 305 308 313 318 320 320 321 323 323 323 323 323 322 321 319 318 318
242 243 242 240 240 240 242 244 245 247 249 253 256 258 259 262 267 271 276 280 285 288 292 296 299 303 308 313 317 318 320 322 323 324 324 323 323 321 320 318 317 318
246 247 247 247 247 247 248 250 251 252 255 259 263 265 265 268 271 275 280 283 286 289 292 295 298 302 308 313 316 318 320 322 323 323 323 322 321 320 318 317 317 318
248 250 252 253 253 254 255 255 255 257 261 266 269 270 270 271 274 277 281 283 286 289 291 294 297 302 308 312 315 317 319 321 322 322 322 321 320 318 317 316 317 320
250 253 254 255 257 258 259 259 260 263 266 270 272 273 274 274 275 278 280 282 285 287 290 293 297 303 308 311 313 316 318 320 320 321 320 319 318 316 315 315 318 321
252 255 256 258 259 260 262 263 265 267 270 273 274 275 275 275 274 276 278 280 283 286 289 292 297 303 307 309 312 315 317 318 319 319 319 317 316 315 314 316 319 321
255 257 260 261 262 264 265 266 267 268 271 273 275 276 276 275 273 273 275 278 281 285 288 292 297 302 305 308 311 313 315 317 317 317 317 316 315 314 314 316 319 322
258 260 262 264 265 267 268 269 270 271 273 275 277 278 277 276 274 273 274 277 280 284 287 291 297 301 304 307 309 311 314 315 316 316 315 315 314 313 314 316 319 323
262 262 263 264 266 267 268 270 271 273 274 276 277 278 278 277 275 273 272 274 278 282 286 291 297 301 303 304 307 310 313 314 314 314 314 313 313 313 314 317 321 326
264 264 265 266 267 269 270 271 272 273 274 275 277 278 277 275 274 272 268 269 274 280 286 293 298 299 300 302 307 311 313 313 313 313 313 312 312 312 314 318 323 328
264 265 266 268 270 271 272 272 272 273 274 275 277 277 277 276 275 270 264 264 273 282 288 293 295 295 299 304 308 312 313 313 313 312 311 311 311 312 315 320 325 330
265 266 267 270 271 271 271 271 274 275 275 276 276 278 283 281 271 261 260 267 278 285 288 290 292 295 301 307 310 312 312 312 311 310 310 310 311 312 316 321 327 330
267 267 268 270 271 272 272 274 276 276 277 280 279 280 287 282 262 255 270 280 282 285 287 289 293 299 304 308 310 311 311 310 309 308 309 310 311 313 317 323 328 330
265 266 268 270 271 274 277 278 277 276 279 285 284 281 284 280 267 273 286 285 283 286 288 291 296 301 305 308 309 310 310 308 308 307 308 309 310 313 318 324 328 329
265 266 268 269 271 274 278 279 279 278 282 288 288 283 282 283 283 286 288 286 287 288 287 291 297 301 305 308 309 310 309 308 307 307 307 308 309 313 318 323 327 328
266 267 268 270 271 274 277 279 279 282 285 287 285 281 282 284 286 288 287 286 286 285 287 292 297 302 305 308 310 310 309 308 307 306 306 307 309 313 318 323 325 327
267 268 269 270 272 274 277 279 282 286 288 286 281 278 280 284 289 291 289 286 284 285 289 293 297 301 305 308 310 310 309 309 308 306 305 307 310 314 318 322 324 326
Height
5796 5796 5797 5798 5799 5800 5800 5801 5802 5803 5804 5805 5806 5807 5808 5809 5810 5810 5810 5811 5811 5812 5812 5812 5812 5811 5811 5810 5810 5809 5807 5806 5804 5803 5801 5800 5798 5797 5795 5793 5790 5788
5794 5795 5795 5796 5797 5798 5799 5800 5801 5802 5803 5804 5805 5806 5807 5808 5808 5809 5809 5809 5810 5810 5810 5810 5810 5809 5809 5808 5807 5806 5804 5803 5801 5800 5798 5797 5795 5793 5791 5789 5786 5784
5792 5794 5794 5795 5796 5797 5799 5800 5800 5801 5801 5803 5804 5805 5806 5806 5807 5807 5807 5808 5808 5808 5808 5808 5808 5807 5807 5806 5804 5803 5802 5800 5799 5797 5796 5794 5792 5790 5787 5785 5782 5780
5791 5792 5794 5794 5795 5797 5798 5799 5799 5800 5800 5802 5803 5804 5804 5805 5805 5805 5806 5806 5806 5806 5806 5806 5806 5805 5804 5803 5802 5800 5799 5798 5796 5794 5792 5790 5788 5786 5783 5781 5779 5777
5790 5791 5793 5793 5794 5795 5796 5797 5798 5798 5800 5801 5802 5802 5803 5803 5803 5804 5804 5804 5804 5804 5804 5804 5803 5803 5801 5800 5799 5798 5796 5795 5793 5791 5789 5786 5784 5782 5780 5778 5776 5774
5790 5791 5791 5792 5793 5794 5795 5795 5796 5797 5798 5799 5800 5801 5801 5801 5802 5802 5802 5802 5802 5802 5802 5802 5801 5800 5799 5797 5796 5795 5793 5791 5789 5787 5785 5783 5781 5779 5777 5775 5773 5771
5789 5789 5790 5791 5792 5793 5793 5794 5795 5796 5797 5798 5798 5799 5799 5799 5800 5800 5800 5800 5800 5800 5800 5799 5798 5797 5796 5795 5793 5792 5790 5788 5786 5784 5782 5780 5778 5776 5774 5772 5770 5768
5787 5788 5789 5789 5790 5791 5792 5793 5794 5795 5796 5796 5797 5797 5797 5797 5797 5798 5798 5798 5798 5797 5797 5796 5795 5794 5793 5792 5790 5788 5786 5784 5783 5781 5779 5777 5775 5773 5771 5769 5767 5764
5785 5786 5787 5787 5788 5789 5790 5791 5792 5793 5794 5794 5795 5795 5795 5795 5795 5795 5795 5795 5795 5795 5794 5793 5792 5791 5790 5789 5787 5785 5783 5782 5780 5778 5776 5774 5772 5770 5768 5766 5764 5761
5783 5784 5785 5786 5787 5787 5788 5789 5790 5791 5792 5792 5793 5793 5793 5793 5793 5793 5793 5793 5792 5792 5791 5790 5789 5788 5787 5786 5784 5782 5781 5779 5777 5775 5773 5771 5769 5767 5765 5763 5760 5758
5782 5783 5784 5784 5785 5786 5787 5788 5789 5789 5790 5790 5791 5791 5791 5790 5790 5790 5790 5790 5790 5789 5788 5787 5787 5786 5784 5783 5781 5779 5778 5776 5774 5771 5769 5768 5766 5764 5762 5759 5757 5755
5781 5782 5782 5783 5784 5785 5785 5786 5787 5787 5788 5788 5788 5788 5788 5788 5788 5788 5788 5787 5787 5786 5786 5785 5784 5783 5781 5779 5778 5776 5774 5773 5770 5768 5767 5765 5763 5761 5758 5756 5754 5752
5779 5780 5781 5782 5782 5783 5784 5784 5785 5785 5785 5786 5786 5786 5786 5786 5786 5785 5785 5785 5784 5783 5783 5782 5781 5779 5778 5776 5775 5773 5771 5770 5768 5766 5764 5762 5760 5758 5756 5753 5751 5749
5778 5778 5779 5780 5780 5781 5781 5782 5782 5783 5783 5783 5783 5783 5783 5783 5783 5783 5782 5782 5781 5780 5780 5779 5777 5776 5775 5773 5772 5770 5769 5767 5765 5763 5761 5759 5757 5755 5753 5751 5749 5746
5776 5776 5777 5778 5778 5778 5779 5780 5780 5781 5781 5781 5781 5781 5781 5781 5780 5780 5779 5779 5778 5777 5776 5775 5774 5773 5772 5770 5769 5767 5766 5764 5762 5760 5758 5756 5754 5752 5749 5748 5746 5743
5773 5774 5775 5775 5775 5776 5776 5777 5777 5778 5778 5778 5778 5778 5778 5777 5777 5777 5776 5776 5775 5774 5773 5772 5771 5770 5769 5768 5766 5765 5763 5761 5759 5757 5755 5753 5750 5748 5746 5744 5743 5740
5771 5771 5772 5772 5772 5773 5773 5774 5774 5775 5775 5775 5775 5775 5774 5774 5774 5774 5773 5772 5772 5771 5770 5769 5768 5767 5766 5765 5763 5762 5760 5758 5755 5753 5752 5749 5747 5745 5743 5741 5739 5737
5768 5768 5768 5769 5769 5769 5770 5770 5771 5771 5771 5772 5772 5771 5771 5770 5770 5770 5770 5769 5768 5768 5767 5766 5765 5764 5763 5762 5760 5758 5756 5754 5752 5750 5748 5746 5744 5742 5740 5738 5736 5733
5765 5765 5766 5766 5766 5767 5767 5767 5767 5768 5768 5768 5768 5768 5766 5765 5765 5765 5765 5765 5765 5764 5763 5762 5762 5761 5760 5758 5757 5755 5753 5751 5749 5747 5745 5743 5741 5739 5737 5735 5733 5730
5763 5763 5763 5763 5764 5764 5764 5764 5764 5764 5764 5764 5764 5763 5761 5760 5760 5760 5761 5762 5762 5761 5760 5759 5759 5758 5757 5755 5753 5751 5749 5748 5746 5744 5742 5740 5738 5736 5734 5732 5729 5727
5759 5760 5760 5761 5761 5760 5760 5760 5760 5760 5760 5759 5759 5758 5757 5755 5755 5756 5757 5757 5757 5757 5757 5756 5756 5755 5753 5751 5749 5748 5746 5744 5743 5741 5739 5736 5734 5733 5731 5729 5726 5723
5756 5756 5757 5757 5757 5756 5756 5757 5757 5757 5756 5755 5755 5755 5754 5751 5752 5754 5754 5754 5754 5753 5753 5753 5752 5751 5750 5748 5746 5745 5743 5741 5739 5737 5735 5733 5732 5730 5728 5726 5723 5720
5753 5753 5753 5754 5753 5753 5753 5753 5753 5752 5753 5752 5751 5751 5751 5750 5750 5751 5751 5750 5750 5750 5750 5750 5749 5748 5746 5745 5743 5741 5740 5738 5736 5734 5732 5730 5729 5727 5725 5723 5720 5717
5749 5749 5750 5750 5750 5749 5749 5750 5749 5749 5749 5749 5748 5747 5748 5748 5748 5747 5747 5747 5747 5747 5747 5746 5745 5744 5743 5741 5740 5738 5736 5735 5733 5731 5729 5727 5726 5724 5722 5720 5717 5715
5746 5746 5746 5746 5746 5746 5746 5746 5746 5746 5745 5745 5745 5745 5745 5745 5744 5744 5744 5744 5744 5744 5744 5743 5742 5741 5740 5738 5737 5735 5733 5731 5730 5728 5726 5725 5723 5721 5719 5717 5715 5712
5742 5742 5743 5743 5743 5743 5743 5743 5742 5742 5742 5741 5741 5741 5741 5741 5741 5741 5741 5741 5741 5741 5740 5739 5738 5738 5736 5735 5733 5732 5730 5728 5726 5725 5723 5722 5720 5718 5716 5714 5712 5710